Location: Unspecified
(42.9300°N, 71.1866°W)
Time: 17:13:00
(UTC-05:00)

Okean 3 - Visible Passes

Search period start: 23 November 2014 00:00
Search period end: 03 December 2014 00:00
Orbit: 581 x 610 km, 82.5° (Epoch: 23 November)

Date Brightness Start Highest point End Pass type
(mag) Time Alt. Az. Time Alt. Az. Time Alt. Az.
23 Nov 5.8 17:17:31 10° SW 17:21:01 25° WNW 17:24:32 10° NNW visible
24 Nov 6.3 17:28:26 10° WSW 17:31:10 17° WNW 17:33:54 10° NNW visible
25 Nov 6.6 17:40:15 10° W 17:41:21 11° WNW 17:42:27 10° NW visible
29 Nov 6.1 16:40:24 10° WSW 16:43:34 20° WNW 16:46:43 10° NNW visible
30 Nov 6.3 16:51:35 10° W 16:53:42 13° WNW 16:55:48 10° NW visible
